DW3200 Weather Reports


Display with metric or nautical units.
time (UTC)temp
F
wind
direction
speed
MPH
gust
MPH
rain 1hr
in
rain 24hr
in
rain mn
in
humidity
%
barometer
mb
20260504214543 74 279 5.0 0.0 0.00 0.00 0.00 34 1005.9
20260504213059 74 283 5.0 0.0 0.00 0.00 0.00 35 1005.9
20260504211540 74 290 4.0 0.0 0.00 0.00 0.00 35 1006.0
20260504210037 73 284 4.0 0.0 0.00 0.00 0.00 36 1006.2
20260504204537 72 307 6.0 0.0 0.00 0.00 0.00 37 1006.2
20260504203017 73 284 2.0 0.0 0.00 0.00 0.00 40 1006.4
20260504201522 72 296 3.0 0.0 0.00 0.00 0.00 40 1006.5
20260504200057 73 279 5.0 0.0 0.00 0.00 0.00 35 1006.5
20260504194604 72 300 5.0 0.0 0.00 0.00 0.00 39 1006.5
20260504193048 71 300 4.0 0.0 0.00 0.00 0.00 39 1006.6
20260504191535 71 294 2.0 0.0 0.00 0.00 0.00 37 1006.6
20260504190016 71 288 3.0 0.0 0.00 0.00 0.00 37 1006.8
20260504184515 70 295 2.0 0.0 0.00 0.00 0.00 37 1007.0
20260504183054 70 284 2.0 0.0 0.00 0.00 0.00 38 1007.0
20260504181552 68 281 3.0 0.0 0.00 0.00 0.00 36 1007.2
20260504180033 69 246 1.0 0.0 0.00 0.00 0.00 35 1007.3
20260504174532 68 240 1.0 0.0 0.00 0.00 0.00 38 1007.3
20260504173023 67 209 2.0 0.0 0.00 0.00 0.00 40 1007.4
20260504171517 67 250 1.0 0.0 0.00 0.00 0.00 41 1007.5
20260504081504 42 280 0.0 0.0 0.00 0.00 0.00 82 1008.4
20260504070118 45 280 0.0 0.0 0.00 0.00 0.00 79 1008.4
20260504044536 53 280 0.0 0.0 0.00 0.00 0.00 66 1008.5
20260504043023 53 280 0.0 0.0 0.00 0.00 0.00 63 1008.6
20260504041559 55 280 0.0 0.0 0.00 0.00 0.00 59 1008.4
20260504040103 56 280 0.0 0.0 0.00 0.00 0.00 56 1008.4
20260504034545 58 280 0.0 0.0 0.00 0.00 0.00 54 1008.3
20260504033049 60 280 0.0 0.0 0.00 0.00 0.00 48 1008.2
20260504031519 63 280 0.0 0.0 0.00 0.00 0.00 46 1008.1
20260504030019 65 280 0.0 0.0 0.00 0.00 0.00 37 1008.0
20260504024501 67 280 0.0 0.0 0.00 0.00 0.00 36 1007.9
20260504023101 69 280 1.0 0.0 0.00 0.00 0.00 34 1007.9
20260504021541 70 280 3.0 0.0 0.00 0.00 0.00 34 1008.0
20260504020040 71 280 3.0 0.0 0.00 0.00 0.00 34 1008.1
20260504014521 72 280 4.0 0.0 0.00 0.00 0.00 33 1008.1
20260504013028 73 279 3.0 0.0 0.00 0.00 0.00 33 1008.2
20260504011501 73 280 4.0 0.0 0.00 0.00 0.00 33 1008.3
20260504010109 73 281 6.0 0.0 0.00 0.00 0.00 32 1008.5
20260504004541 73 283 7.0 0.0 0.00 0.00 0.00 31 1008.7
20260504003039 74 251 4.0 0.0 0.00 0.00 0.00 29 1008.7
20260504001521 74 271 5.0 0.0 0.00 0.00 0.00 29 1008.8
20260504000020 74 278 5.0 0.0 0.00 0.00 0.00 29 1008.9
20260503234502 75 284 7.0 0.0 0.00 0.00 0.00 29 1009.0
20260503233001 75 222 4.0 0.0 0.00 0.00 0.00 28 1009.1
20260503231542 74 285 6.0 0.0 0.00 0.00 0.00 31 1009.2
20260503230041 74 234 4.0 0.0 0.00 0.00 0.00 27 1009.2
20260503224522 75 284 5.0 0.0 0.00 0.00 0.00 28 1009.6
20260503223020 74 281 5.0 0.0 0.00 0.00 0.00 27 1009.7
20260503221501 74 294 7.0 0.0 0.00 0.00 0.00 28 1009.9
20260503220112 74 312 5.0 0.0 0.00 0.00 0.00 29 1010.0